Location: Fort Frances
(48.6170°N, 93.4170°W)
Time: 06:43:59
(UTC-05:00)

Daily predictions for brighter satellites

Satellite Brightness Start Highest point End
(mag) Time Altitude Azimuth Time Altitude Azimuth Time Altitude Azimuth
Cosmos 1697 Rocket 3.7 20:31:51 10° SSE 20:36:14 24° ESE 20:40:37 10° NE
Cosmos 1633 4.1 20:34:49 10° SSW 20:38:19 43° WNW 20:41:49 10° N
Cosmos 2278 3.7 20:37:46 10° SSW 20:43:23 65° ESE 20:49:03 10° NNE
Cosmos 1934 Rocket 4.0 20:39:06 10° S 20:45:15 88° E 20:51:34 10° N
Resurs 01 Rocket 3.4 20:41:44 10° SSW 20:45:48 35° W 20:49:56 10° NNW
Cosmos 1544 Rocket 4.0 20:43:59 10° SSW 20:48:21 70° W 20:52:48 10° N
EO 1 Delta rocket 3.9 20:46:03 10° NNE 20:50:42 71° E 20:55:54 10° S
ALOS 2.7 20:46:11 10° S 20:50:50 68° WSW 20:55:31 10° NNW
Helios 1B rocket 4.0 20:49:27 10° N 20:53:23 41° WNW 20:57:14 10° SW
H-2A R/B 3.1 20:50:02 10° S 20:53:55 71° WSW 20:57:54 10° NNW
Cosmos 1975 3.0 20:50:06 10° S 20:54:05 51° E 20:58:04 10° NNE
Cosmos 2208 Rocket 4.1 20:49:28 10° SSW 20:54:49 89° WNW 21:00:17 10° NNE
Cosmos 2369 3.7 20:51:51 10° SSW 20:57:30 74° ESE 21:03:13 10° NNE
Lacrosse 5 rocket 2.6 20:54:21 10° WNW 20:57:41 30° SW 21:00:54 10° SSE
Cosmos 2298 Rocket 4.0 20:52:39 10° NNW 20:58:00 78° ENE 21:03:19 10° SSE
NOSS 7 (E) 4.3 20:55:00 10° SW 20:58:21 84° SE 21:01:51 10° NE
USA 186 2.0 20:55:26 10° S 20:58:28 62° W 21:01:17 10° NNW
Cosmos 1980 Rocket 3.3 20:55:03 10° SSE 20:59:19 22° E 21:03:37 10° NE
Cosmos 1937 Rocket 3.7 20:59:02 10° NNW 21:04:16 60° ENE 21:09:16 11° SE
Iridium 4 Rocket 3.3 20:59:23 10° N 21:04:35 73° E 21:09:16 10° S
Envisat 3.3 21:00:45 10° SE 21:05:39 51° ENE 21:10:34 10° N
NOSS 7 (H) 4.3 21:04:27 10° SSW 21:07:42 62° SE 21:11:16 10° NE
Cosmos 990 Rocket 4.2 21:11:32 10° NNW 21:16:45 58° ENE 21:20:54 16° SE
Cosmos 1666 4.4 21:16:27 16° E 21:16:51 16° E 21:19:11 10° NE
Tiangong 1 2.5 21:15:30 10° WSW 21:18:06 25° S 21:19:22 19° SSE
Cosmos 972 Rocket 4.4 21:12:34 10° NNW 21:18:25 77° ENE 21:24:52 10° SSE
H-2A R/B 3.8 21:17:51 11° E 21:20:15 15° NE 21:23:04 10° NNE
Meteor 1-12 Rocket 4.4 21:15:24 10° SSW 21:21:10 85° WNW 21:27:05 10° N
Cosmos 2263 Rocket 3.7 21:17:35 10° N 21:21:52 22° NE 21:25:29 12° E
Cosmos 1656 3.6 21:18:18 10° SSW 21:23:52 70° ESE 21:29:24 10° NNE
Cosmos 2227 Rocket 3.8 21:18:59 10° NW 21:24:00 33° WSW 21:29:00 10° SSW
Cosmos 2150 Rocket 4.1 21:18:55 10° NNW 21:24:05 75° WSW 21:29:13 10° SSE
Cosmos 1825 Rocket 3.7 21:22:00 10° N 21:26:24 58° ENE 21:29:39 17° SSE
Cosmos 1500 3.0 21:23:48 10° S 21:27:33 78° E 21:31:21 10° NNE
Cosmos 2173 Rocket 4.1 21:23:09 10° S 21:29:21 58° E 21:35:33 10° NNE
Cosmos 1939 Rocket 2.9 21:25:53 12° SSE 21:29:43 87° ENE 21:33:55 10° NNW
Meteor 1-21 4.4 21:25:41 10° N 21:31:24 62° ENE 21:35:57 17° SSE
BREEZE-M DEB (TANK) 3.7 21:28:42 10° WNW 21:32:06 76° SSW 21:39:14 18° ESE
Cosmos 2322 Rocket 3.7 21:32:38 16° E 21:32:38 16° E 21:35:37 10° ENE
Lacrosse 5 2.2 21:27:39 10° WNW 21:32:37 58° SW 21:36:04 19° SSE
ERS-1 Rocket 3.1 21:28:41 10° S 21:33:42 75° WSW 21:38:45 10° NNW
Cosmos 1340 2.7 21:30:58 10° N 21:34:44 60° ENE 21:36:49 25° SSE
Cosmos 1953 Rocket 3.7 21:32:18 10° N 21:36:42 55° ENE 21:39:18 23° SSE
Cosmos 967 Rocket 4.5 21:32:21 10° NW 21:38:46 84° NE 21:43:07 22° SE
SPOT 1/Viking Rocket 4.2 21:36:08 22° ESE 21:38:58 40° ENE 21:43:50 10° N
Cosmos 2297 Rocket 3.6 21:34:14 10° NW 21:39:19 35° WSW 21:44:22 10° S
YAOGAN 6 3.1 21:38:50 29° SE 21:40:16 45° ENE 21:43:51 10° N
Cosmos 1898 Rocket 4.3 21:37:51 10° NNW 21:43:00 51° WSW 21:48:04 10° S
Cosmos 2100 Rocket 3.9 21:36:46 10° S 21:43:02 78° E 21:49:16 10° NNE
SPOT 5 2.9 21:39:47 20° SSE 21:43:11 68° ENE 21:47:55 10° N
H-2A R/B 1.9 21:40:46 22° SSE 21:43:23 80° ENE 21:47:34 10° NNW
PSLV R/B 3.6 21:45:36 39° E 21:46:00 41° ENE 21:48:55 10° N
Cosmos 1763 Rocket 3.7 21:41:43 11° S 21:46:20 43° ESE 21:51:08 10° NE
Cosmos 2227 4.2 21:40:41 10° NNW 21:46:28 81° ENE 21:50:02 24° SSE
Tsikada Rocket 4.3 21:41:28 10° N 21:47:43 50° ENE 21:51:23 24° SE
Cosmos 1125 Rocket 3.9 21:44:11 10° NNW 21:49:13 47° ENE 21:51:36 28° ESE
Cosmos 405 Rocket 4.1 21:46:52 10° NNE 21:49:50 21° ENE 21:50:05 21° ENE
Cosmos 2061 Rocket 3.9 21:43:56 10° S 21:50:14 80° E 21:56:31 10° N
Nimbus 7 Rocket 4.5 21:45:53 10° NNE 21:51:54 62° ESE 21:57:54 10° S
RESURS DK-1 3.2 21:49:55 10° NW 21:53:54 46° WSW 21:56:25 20° S
Cosmos 2228 3.8 21:54:37 29° E 21:54:49 30° E 21:58:33 10° NNE
Cosmos 1758 Rocket 3.4 21:51:07 10° N 21:55:30 73° E 21:57:28 31° SSE
deb Chang Zheng 4 3.5 21:52:47 10° NNE 21:57:16 70° ESE 22:00:40 17° S
MetOp-A 4.1 21:54:39 23° SSE 21:58:05 83° ENE 22:03:29 10° NNW
CZ-4 SHROUD 3.2 21:59:05 54° E 21:59:13 55° ENE 22:02:15 10° N
Cosmos 468 Rocket 4.1 21:57:05 10° SSW 22:02:12 74° WNW 22:07:22 10° NNE
Cosmos 1743 2.9 22:01:45 13° SSW 22:05:08 71° W 22:09:04 10° N
USA 215 3.4 22:03:14 24° ESE 22:07:21 71° NNE 22:13:51 10° NW
Cosmos 841 Rocket 3.5 22:04:54 17° S 22:08:51 59° ESE 22:13:59 10° NNE
BREEZE-M DEB (TANK) 2.9 22:08:59 10° W 22:11:17 37° SSW 22:11:28 36° S
Terra 2.8 22:11:26 29° E 22:12:20 31° ENE 22:16:31 10° N
Cosmos 1814 Rocket 4.3 22:07:26 10° SSW 22:12:46 72° WNW 22:18:05 10° NNE
Cosmos 1459 Rocket 4.2 22:08:59 10° SSW 22:15:00 68° WNW 22:21:08 10° N
SL-19 R/B 4.2 22:11:00 10° NNE 22:16:27 56° ESE 22:18:28 35° SSE
Cosmos 1725 Rocket 4.0 22:12:55 26° SSE 22:16:33 65° E 22:22:45 10° NNE
Cosmos 1697 Rocket 3.1 22:14:08 10° SW 22:19:44 64° WNW 22:25:22 10° NNE
Cosmos 2058 Rocket 3.0 22:22:16 40° S 22:23:53 83° E 22:28:25 10° N
Cosmos 540 Rocket 4.3 22:25:34 32° E 22:25:34 32° E 22:29:26 10° NE
SL-16 R/B 2.6 22:28:05 41° ESE 22:28:11 41° ESE 22:33:27 10° NE
ASTEX 1 3.6 22:24:10 10° N 22:29:11 71° W 22:32:13 24° SSW
Cosmos 1842 3.7 22:25:49 10° NNW 22:29:40 57° W 22:30:34 44° SW
NOAA 11 4.1 22:27:54 38° SSE 22:30:08 86° WSW 22:35:39 10° NNW
Cosmos 1606 Rocket 4.2 22:27:25 18° SSW 22:30:35 56° WNW 22:34:59 10° N
Cosmos 1844 Rocket 4.5 22:30:08 10° N 22:34:12 20° NE 22:36:28 16° ENE
Cosmos 372 Rocket 4.0 22:29:05 10° NNW 22:34:13 68° ENE 22:35:15 53° ESE
ARGOS 3.2 22:35:03 40° S 22:37:04 77° WSW 22:42:30 10° NNW
BREEZE-M DEB (TANK) 3.1 22:28:01 10° WSW 22:37:34 54° S 22:38:01 52° SSE
DELTA 2 DEB (DPAF) 4.2 22:39:04 60° E 22:39:22 62° ENE 22:43:49 10° N
Cosmos 1707 3.9 22:36:41 10° N 22:39:34 32° NE 22:39:34 32° NE
Cosmos 2233 Rocket 4.0 22:39:50 45° SSE 22:41:38 63° E 22:47:48 10° NNE
CARTOSAT-1 3.8 22:41:46 53° ENE 22:41:46 53° ENE 22:45:59 10° N
Cosmos 1980 Rocket 2.5 22:37:09 10° SW 22:42:48 67° WNW 22:48:31 10° NNE
Cosmos 2360 Rocket 3.9 22:45:50 18° ENE 22:45:50 18° ENE 22:47:58 10° NE
Cosmos 1666 3.7 22:51:25 37° WSW 22:52:11 43° WNW 22:55:51 10° N
H-2A R/B 1.8 22:58:29 72° S 22:59:00 88° WSW 23:03:58 10° NNW
Meteor 2-5 Rocket 3.7 22:53:55 10° N 22:59:54 80° E 23:00:57 61° SSE
CZ-4B R/B 3.3 22:55:27 10° NNE 23:00:14 80° WNW 23:01:01 62° SW
Cosmos 1812 Rocket 4.0 23:04:03 51° NE 23:04:03 51° NE 23:07:28 10° NNE
Cosmos 2263 Rocket 2.0 23:00:56 10° NNW 23:06:32 85° WSW 23:07:11 71° S
Cosmos 1375 Rocket 4.4 23:09:53 42° SSW 23:12:17 77° ESE 23:18:54 10° NE
Lacrosse 5 4.2 23:12:55 10° W 23:14:39 12° WSW 23:15:16 11° SW
Cosmos 2322 Rocket 2.1 23:14:22 58° SSW 23:15:32 87° WNW 23:21:13 10° NNE
Cosmos 1441 Rocket 4.4 23:14:09 10° N 23:16:47 38° N 23:16:47 38° N
Meteor 1-24 Rocket 3.8 23:12:59 10° N 23:19:02 70° ENE 23:19:32 66° ESE
IGS 5A 4.0 23:21:14 56° NW 23:21:14 56° NW 23:24:39 10° NNW
Cosmos 783 Rocket 4.4 23:21:49 86° WSW 23:21:55 88° WNW 23:27:15 10° NNE
GEOS 3 Rocket 4.0 23:16:53 10° NE 23:20:45 50° ENE 23:20:45 50° ENE
Cosmos 405 Rocket 4.4 23:22:37 10° NNW 23:25:19 29° WNW 23:25:19 29° WNW
Cosmos 1464 Rocket 4.0 23:26:05 64° ESE 23:26:25 66° E 23:32:43 10° NNE
Cosmos 332 Rocket 4.1 23:34:41 61° WNW 23:34:50 61° WNW 23:39:43 10° NNE
GP-B 3.8 23:33:53 10° N 23:37:43 50° WNW 23:37:43 50° WNW
Cosmos 371 Rocket 3.7 23:39:19 59° N 23:39:19 59° N 23:43:18 10° NNE
Nadezhda 4 Rocket 4.2 23:32:28 10° N 23:38:42 56° ENE 23:38:55 56° E
COSMOS 2428 4.3 23:43:01 22° ENE 23:43:01 22° ENE 23:45:31 10° NE
Okean 3 Rocket 4.4 23:40:18 10° NNW 23:43:42 48° NW 23:43:42 48° NW
Terra 2.9 23:50:19 36° W 23:50:19 36° W 23:54:26 10° NNW
USA 215 3.6 23:50:35 47° SW 23:50:35 47° SW 23:56:53 10° WNW
Cosmos 2278 Rocket 3.3 23:49:09 10° NNW 23:54:18 34° NE 23:54:50 33° ENE
